BEIDOU-2 IGSO-3 (C08)

Last updated on Mon Oct 20 2025 00:03:24 GMT+0000 (Coordinated Universal Time)

1 37384U 11013A 25291.85313704 -.00000199 00000+0 00000+0 0 9999 2 37384 62.0720 42.4401 0036427 182.5199 217.1292 1.00284356 53243
UTC large
Height (km)
Speed (km/s)
/
Latitude / Longitude
Inclination (degrees)
Orbital Period (minutes)
Azimuth
Elevation
Range (km)
Doppler Factor

Next 0 passes for location: London (51.5072 / 0.1276)

Sorry there are no passes over London.